Time,TemperatureF,DewpointF,PressureIn,WindDirection,WindDirectionDegrees,WindSpeedMPH,WindSpeedGustMPH,Humidity,HourlyPrecipIn,Conditions,Clouds,dailyrainin,SoftwareType,DateUTC
2013-01-07 00:15:00,71.2,69.0,30.18,WNW,290,4.0,6.0,94,0.00,,,0.00,weatherlink.com 1.10,2013-01-07 05:15:00,
2013-01-07 00:30:00,70.8,69.0,30.17,West,281,2.0,4.0,94,0.00,,,0.00,weatherlink.com 1.10,2013-01-07 05:30:00,
2013-01-07 00:45:00,70.5,69.0,30.17,WNW,283,2.0,3.0,95,0.00,,,0.00,weatherlink.com 1.10,2013-01-07 05:45:00,
2013-01-07 01:01:00,70.2,69.0,30.16,West,267,3.0,4.0,95,0.00,,,0.00,weatherlink.com 1.10,2013-01-07 06:01:00,
2013-01-07 01:16:00,70.0,69.0,30.16,WNW,290,3.0,4.0,95,0.00,,,0.00,weatherlink.com 1.10,2013-01-07 06:16:00,
2013-01-07 01:31:00,70.0,68.0,30.16,West,279,2.0,4.0,94,0.00,,,0.00,weatherlink.com 1.10,2013-01-07 06:31:00,
2013-01-07 01:46:00,69.8,68.0,30.15,WNW,295,0.0,6.0,94,0.00,,,0.00,weatherlink.com 1.10,2013-01-07 06:46:00,
2013-01-07 02:01:00,69.6,68.0,30.15,WNW,297,0.0,3.0,94,0.00,,,0.00,weatherlink.com 1.10,2013-01-07 07:01:00,
2013-01-07 02:16:00,69.5,68.0,30.15,WNW,288,0.0,0.0,95,0.00,,,0.00,weatherlink.com 1.10,2013-01-07 07:16:00,
2013-01-07 02:31:00,69.2,68.0,30.15,WNW,288,0.0,0.0,95,0.00,,,0.00,weatherlink.com 1.10,2013-01-07 07:31:00,
2013-01-07 02:46:00,69.0,68.0,30.15,WNW,283,0.0,0.0,95,0.00,,,0.00,weatherlink.com 1.10,2013-01-07 07:46:00,
2013-01-07 03:01:00,68.9,68.0,30.14,WNW,291,0.0,3.0,95,0.00,,,0.00,weatherlink.com 1.10,2013-01-07 08:01:00,
2013-01-07 03:16:00,68.8,67.0,30.14,NW,307,0.0,2.0,95,0.00,,,0.00,weatherlink.com 1.10,2013-01-07 08:16:00,
2013-01-07 03:31:00,68.7,68.0,30.15,West,276,0.0,3.0,96,0.00,,,0.00,weatherlink.com 1.10,2013-01-07 08:31:00,
2013-01-07 03:46:00,68.7,68.0,30.14,WNW,284,2.0,4.0,96,0.00,,,0.00,weatherlink.com 1.10,2013-01-07 08:46:00,
2013-01-07 04:01:00,68.7,68.0,30.14,WNW,293,2.0,2.0,96,0.00,,,0.00,weatherlink.com 1.10,2013-01-07 09:01:00,
2013-01-07 04:16:00,68.8,68.0,30.14,WNW,293,0.0,2.0,96,0.00,,,0.00,weatherlink.com 1.10,2013-01-07 09:16:00,
2013-01-07 04:31:00,68.8,68.0,30.13,WNW,302,1.0,4.0,96,0.00,,,0.00,weatherlink.com 1.10,2013-01-07 09:31:00,
2013-01-07 04:46:00,69.1,68.0,30.13,NW,314,0.0,3.0,96,0.00,,,0.00,weatherlink.com 1.10,2013-01-07 09:46:00,
2013-01-07 05:01:00,69.2,68.0,30.14,WNW,283,1.0,5.0,96,0.00,,,0.00,weatherlink.com 1.10,2013-01-07 10:01:00,
2013-01-07 05:16:00,69.3,68.0,30.14,West,274,2.0,4.0,95,0.00,,,0.00,weatherlink.com 1.10,2013-01-07 10:16:00,
2013-01-07 05:31:00,69.2,68.0,30.14,WNW,288,2.0,4.0,94,0.00,,,0.00,weatherlink.com 1.10,2013-01-07 10:31:00,
2013-01-07 05:46:00,68.8,67.0,30.14,WNW,295,0.0,0.0,94,0.00,,,0.00,weatherlink.com 1.10,2013-01-07 10:46:00,
2013-01-07 06:01:00,68.5,67.0,30.14,NNE,23,0.0,0.0,94,0.00,,,0.00,weatherlink.com 1.10,2013-01-07 11:01:00,
2013-01-07 06:16:00,68.3,67.0,30.15,NNE,22,0.0,0.0,95,0.00,,,0.00,weatherlink.com 1.10,2013-01-07 11:16:00,
2013-01-07 06:31:00,67.7,66.0,30.16,NNE,23,0.0,0.0,94,0.00,,,0.00,weatherlink.com 1.10,2013-01-07 11:31:00,
2013-01-07 06:46:00,67.6,66.0,30.17,WNW,300,0.0,0.0,95,0.00,,,0.00,weatherlink.com 1.10,2013-01-07 11:46:00,
2013-01-07 07:01:00,67.6,66.0,30.17,NW,315,0.0,2.0,95,0.00,,,0.00,weatherlink.com 1.10,2013-01-07 12:01:00,
2013-01-07 07:16:00,68.1,67.0,30.18,WNW,290,0.0,3.0,95,0.00,,,0.00,weatherlink.com 1.10,2013-01-07 12:16:00,
2013-01-07 07:31:00,68.4,67.0,30.19,NNW,336,0.0,2.0,95,0.00,,,0.00,weatherlink.com 1.10,2013-01-07 12:31:00,
2013-01-07 07:46:00,69.0,68.0,30.19,North,354,0.0,5.0,95,0.00,,,0.00,weatherlink.com 1.10,2013-01-07 12:46:00,
2013-01-07 08:01:00,69.8,68.0,30.20,NNE,16,1.0,5.0,95,0.00,,,0.00,weatherlink.com 1.10,2013-01-07 13:01:00,
2013-01-07 08:16:00,70.7,69.0,30.21,WNW,302,2.0,8.0,94,0.00,,,0.00,weatherlink.com 1.10,2013-01-07 13:16:00,
2013-01-07 08:31:00,71.6,70.0,30.21,NNW,347,2.0,6.0,93,0.00,,,0.00,weatherlink.com 1.10,2013-01-07 13:31:00,
2013-01-07 08:46:00,72.5,70.0,30.21,WNW,297,3.0,6.0,92,0.00,,,0.00,weatherlink.com 1.10,2013-01-07 13:46:00,
2013-01-07 09:02:00,72.7,70.0,30.21,North,349,5.0,8.0,91,0.00,,,0.00,weatherlink.com 1.10,2013-01-07 14:02:00,
2013-01-07 09:16:00,72.8,70.0,30.22,WNW,283,3.0,10.0,90,0.00,,,0.00,weatherlink.com 1.10,2013-01-07 14:16:00,
2013-01-07 09:31:00,72.8,70.0,30.22,NNW,332,0.0,9.0,90,0.00,,,0.00,weatherlink.com 1.10,2013-01-07 14:31:00,
2013-01-07 09:46:00,73.5,70.0,30.22,NW,311,2.0,7.0,89,0.00,,,0.00,weatherlink.com 1.10,2013-01-07 14:46:00,
2013-01-07 10:01:00,74.1,70.0,30.22,WNW,297,2.0,6.0,88,0.00,,,0.00,weatherlink.com 1.10,2013-01-07 15:01:00,
2013-01-07 10:16:00,74.5,70.0,30.22,WNW,300,3.0,8.0,86,0.00,,,0.00,weatherlink.com 1.10,2013-01-07 15:16:00,
2013-01-07 10:31:00,74.2,70.0,30.21,NW,323,2.0,9.0,85,0.00,,,0.00,weatherlink.com 1.10,2013-01-07 15:31:00,
2013-01-07 10:46:00,74.1,70.0,30.21,North,11,5.0,8.0,86,0.00,,,0.00,weatherlink.com 1.10,2013-01-07 15:46:00,
2013-01-07 11:01:00,74.4,70.0,30.21,NNE,15,1.0,9.0,85,0.00,,,0.00,weatherlink.com 1.10,2013-01-07 16:01:00,
2013-01-07 11:16:00,74.4,70.0,30.20,NNE,27,2.0,8.0,85,0.00,,,0.00,weatherlink.com 1.10,2013-01-07 16:16:00,
2013-01-07 11:31:00,75.3,70.0,30.20,NNE,20,3.0,9.0,84,0.00,,,0.00,weatherlink.com 1.10,2013-01-07 16:31:00,
2013-01-07 11:47:00,75.6,69.0,30.19,North,359,8.0,8.0,81,0.00,,,0.00,weatherlink.com 1.10,2013-01-07 16:47:00,
2013-01-07 12:02:00,75.4,70.0,30.18,North,351,2.0,6.0,83,0.00,,,0.00,weatherlink.com 1.10,2013-01-07 17:02:00,
2013-01-07 12:17:00,75.1,69.0,30.17,North,350,3.0,11.0,82,0.00,,,0.00,weatherlink.com 1.10,2013-01-07 17:17:00,
2013-01-07 12:32:00,75.1,69.0,30.17,North,358,3.0,7.0,82,0.00,,,0.00,weatherlink.com 1.10,2013-01-07 17:32:00,
2013-01-07 12:47:00,74.2,69.0,30.17,NNW,330,2.0,8.0,83,0.00,,,0.00,weatherlink.com 1.10,2013-01-07 17:47:00,
2013-01-07 13:02:00,74.3,70.0,30.16,NNE,15,3.0,6.0,85,0.00,,,0.00,weatherlink.com 1.10,2013-01-07 18:02:00,
2013-01-07 13:17:00,74.7,70.0,30.16,NNE,26,4.0,6.0,84,0.00,,,0.00,weatherlink.com 1.10,2013-01-07 18:17:00,
2013-01-07 13:32:00,74.6,70.0,30.15,NNE,16,2.0,9.0,84,0.00,,,0.00,weatherlink.com 1.10,2013-01-07 18:32:00,
2013-01-07 13:47:00,74.8,70.0,30.15,North,360,3.0,8.0,85,0.00,,,0.00,weatherlink.com 1.10,2013-01-07 18:47:00,
2013-01-07 14:02:00,72.9,68.0,30.15,East,82,7.0,11.0,85,0.00,,,0.00,weatherlink.com 1.10,2013-01-07 19:02:00,
2013-01-07 14:18:00,72.6,69.0,30.14,ENE,68,5.0,7.0,88,0.00,,,0.00,weatherlink.com 1.10,2013-01-07 19:18:00,
2013-01-07 14:32:00,72.9,69.0,30.14,NE,43,3.0,5.0,88,0.00,,,0.00,weatherlink.com 1.10,2013-01-07 19:32:00,
2013-01-07 14:47:00,72.3,69.0,30.14,NE,43,5.0,8.0,89,0.00,,,0.00,weatherlink.com 1.10,2013-01-07 19:47:00,
2013-01-07 15:02:00,71.8,69.0,30.14,NE,46,5.0,8.0,91,0.00,,,0.00,weatherlink.com 1.10,2013-01-07 20:02:00,
2013-01-07 15:17:00,72.1,69.0,30.14,NNE,19,3.0,6.0,90,0.00,,,0.00,weatherlink.com 1.10,2013-01-07 20:17:00,
2013-01-07 15:32:00,71.7,69.0,30.15,NE,48,3.0,7.0,91,0.00,,,0.00,weatherlink.com 1.10,2013-01-07 20:32:00,
2013-01-07 15:47:00,71.8,69.0,30.15,NNE,20,4.0,10.0,91,0.00,,,0.00,weatherlink.com 1.10,2013-01-07 20:47:00,
2013-01-07 16:17:00,72.0,69.0,30.15,NE,46,6.0,7.0,91,0.00,,,0.00,weatherlink.com 1.10,2013-01-07 21:17:00,
2013-01-07 16:32:00,71.7,69.0,30.15,NE,39,3.0,6.0,91,0.00,,,0.00,weatherlink.com 1.10,2013-01-07 21:32:00,
2013-01-07 16:47:00,72.0,69.0,30.15,NNE,33,0.0,3.0,91,0.00,,,0.00,weatherlink.com 1.10,2013-01-07 21:47:00,
2013-01-07 17:02:00,72.1,69.0,30.15,NNE,30,0.0,4.0,91,0.00,,,0.00,weatherlink.com 1.10,2013-01-07 22:02:00,
2013-01-07 17:17:00,72.0,69.0,30.15,NW,307,0.0,4.0,91,0.00,,,0.00,weatherlink.com 1.10,2013-01-07 22:17:00,
2013-01-07 17:32:00,71.8,69.0,30.15,West,281,3.0,7.0,91,0.00,,,0.00,weatherlink.com 1.10,2013-01-07 22:32:00,
2013-01-07 17:47:00,71.7,69.0,30.15,NW,325,2.0,6.0,91,0.00,,,0.00,weatherlink.com 1.10,2013-01-07 22:47:00,
2013-01-07 18:02:00,71.4,69.0,30.16,NNE,13,2.0,6.0,92,0.00,,,0.00,weatherlink.com 1.10,2013-01-07 23:02:00,
2013-01-07 18:17:00,71.0,69.0,30.17,North,5,2.0,3.0,92,0.00,,,0.00,weatherlink.com 1.10,2013-01-07 23:17:00,
2013-01-07 18:32:00,70.7,69.0,30.17,NNE,15,1.0,3.0,93,0.00,,,0.00,weatherlink.com 1.10,2013-01-07 23:32:00,
2013-01-07 18:47:00,70.7,69.0,30.17,WNW,297,1.0,2.0,93,0.00,,,0.00,weatherlink.com 1.10,2013-01-07 23:47:00,
2013-01-07 19:02:00,70.6,69.0,30.18,North,354,0.0,1.0,93,0.00,,,0.00,weatherlink.com 1.10,2013-01-08 00:02:00,
2013-01-07 19:17:00,70.6,69.0,30.18,North,352,0.0,1.0,93,0.00,,,0.00,weatherlink.com 1.10,2013-01-08 00:17:00,
2013-01-07 19:32:00,70.7,69.0,30.19,WNW,290,0.0,1.0,94,0.00,,,0.00,weatherlink.com 1.10,2013-01-08 00:32:00,
2013-01-07 19:47:00,72.6,71.0,30.19,NNE,32,5.0,10.0,94,0.00,,,0.00,weatherlink.com 1.10,2013-01-08 00:47:00,
2013-01-07 20:02:00,73.2,71.0,30.19,NE,53,8.0,14.0,91,0.00,,,0.00,weatherlink.com 1.10,2013-01-08 01:02:00,
2013-01-07 20:17:00,73.1,70.0,30.19,ESE,104,0.0,10.0,91,0.00,,,0.00,weatherlink.com 1.10,2013-01-08 01:17:00,
2013-01-07 20:32:00,73.2,71.0,30.19,NE,39,4.0,9.0,92,0.00,,,0.00,weatherlink.com 1.10,2013-01-08 01:32:00,
2013-01-07 20:47:00,73.2,71.0,30.19,NE,36,6.0,7.0,91,0.00,,,0.00,weatherlink.com 1.10,2013-01-08 01:47:00,
2013-01-07 21:02:00,73.5,71.0,30.20,NE,47,3.0,7.0,90,0.00,,,0.00,weatherlink.com 1.10,2013-01-08 02:02:00,
2013-01-07 21:17:00,73.6,70.0,30.19,ENE,61,3.0,7.0,88,0.00,,,0.00,weatherlink.com 1.10,2013-01-08 02:17:00,
2013-01-07 21:32:00,73.7,70.0,30.19,ENE,64,6.0,10.0,88,0.00,,,0.00,weatherlink.com 1.10,2013-01-08 02:32:00,
2013-01-07 21:47:00,73.7,70.0,30.20,NE,53,6.0,10.0,88,0.00,,,0.00,weatherlink.com 1.10,2013-01-08 02:47:00,
2013-01-07 22:02:00,73.6,70.0,30.20,ENE,65,3.0,8.0,88,0.00,,,0.00,weatherlink.com 1.10,2013-01-08 03:02:00,
2013-01-07 22:17:00,73.3,70.0,30.19,ENE,62,7.0,11.0,88,0.00,,,0.00,weatherlink.com 1.10,2013-01-08 03:17:00,
2013-01-07 22:32:00,73.0,69.0,30.19,ENE,72,5.0,9.0,88,0.00,,,0.00,weatherlink.com 1.10,2013-01-08 03:32:00,
2013-01-07 22:47:00,73.3,70.0,30.18,ENE,69,10.0,11.0,90,0.00,,,0.00,weatherlink.com 1.10,2013-01-08 03:47:00,
2013-01-07 23:02:00,72.9,70.0,30.18,ENE,68,6.0,14.0,90,0.00,,,0.00,weatherlink.com 1.10,2013-01-08 04:02:00,
2013-01-07 23:17:00,71.6,69.0,30.18,NNE,33,3.0,17.0,92,0.01,,,0.01,weatherlink.com 1.10,2013-01-08 04:17:00,
2013-01-07 23:32:00,71.4,70.0,30.18,ESE,108,0.0,3.0,95,0.02,,,0.02,weatherlink.com 1.10,2013-01-08 04:32:00,
2013-01-07 23:47:00,71.7,70.0,30.17,ENE,78,6.0,9.0,95,0.02,,,0.02,weatherlink.com 1.10,2013-01-08 04:47:00,